Location: *
(42.0175°N, 9.4056°E)
Time: 13:31:10
(UTC+00:00)

Cosmos 2322 Rocket - Pass Details

Date: 25 August 2019
Orbit: 834 x 850 km, 71.0° (Epoch: 17 September)

Event Time Altitude Azimuth Distance (km) Brightness Sun altitude
Rises 20:49:46 0° 343° (NNW) 3,399 6.3 -26.5°
Reaches altitude 10° 20:52:32 10° 354° (N) 2,459 5.3 -26.9°
Enters shadow 20:57:18 30° 52° (NE) 1,448 3.3 -27.5°
